This is the latest recevied weather packets stored in our database for station/object KB2EAR-13. If no packets are shown the sender has not sent any weather packets the latest 10 day(s).
| Time | Temp. | Humidity | Pressure | Rain* | Wind** | Luminosity | Snow |
|---|---|---|---|---|---|---|---|
| 1788025817 | 25° C | 47% | 1024.7 hPa | 0 mm | - | - | - |
| 1788025517 | 25° C | 47% | 1024.8 hPa | 0 mm | - | - | - |
| 1788025217 | 25° C | 49% | 1024.9 hPa | 0 mm | - | - | - |
| 1788024917 | 25° C | 48% | 1024.8 hPa | 0 mm | - | - | - |
| 1788024617 | 24.44° C | 48% | 1024.8 hPa | 0 mm | - | - | - |
| 1788024317 | 24.44° C | 48% | 1025 hPa | 0 mm | - | - | - |
| 1788024017 | 24.44° C | 50% | 1025.1 hPa | 0 mm | - | - | - |
| 1788023718 | 24.44° C | 51% | 1025.1 hPa | 0 mm | - | - | - |
| 1788023417 | 24.44° C | 49% | 1025.1 hPa | 0 mm | - | - | - |
| 1788023117 | 23.89° C | 50% | 1025.1 hPa | 0 mm | - | - | - |
| 1788022817 | 24.44° C | 51% | 1025 hPa | 0 mm | - | - | - |
| 1788022517 | 24.44° C | 50% | 1025 hPa | 0 mm | - | - | - |
| 1788022217 | 24.44° C | 51% | 1025 hPa | 0 mm | - | - | - |
| 1788021917 | 24.44° C | 52% | 1024.9 hPa | 0 mm | - | - | - |
| 1788021617 | 24.44° C | 53% | 1025 hPa | 0 mm | - | - | - |
| 1788021317 | 23.89° C | 51% | 1025.1 hPa | 0 mm | - | - | - |
| 1788021017 | 23.89° C | 52% | 1025.1 hPa | 0 mm | - | - | - |
| 1788020717 | 23.89° C | 52% | 1025 hPa | 0 mm | - | - | - |
| 1788020417 | 23.33° C | 52% | 1025.1 hPa | 0 mm | - | - | - |
| 1788020117 | 23.89° C | 51% | 1025.1 hPa | 0 mm | - | - | - |
| 1788019817 | 23.89° C | 52% | 1025.1 hPa | 0 mm | - | - | - |
| 1788019518 | 23.33° C | 53% | 1025.3 hPa | 0 mm | - | - | - |
| 1788019312 | 23.33° C | 51% | 1025.3 hPa | 0 mm | - | - | - |
| 1788019235 | 23.33° C | 53% | 1025.3 hPa | 0 mm | - | - | - |
| 1788018917 | 23.33° C | 53% | 1025.3 hPa | 0 mm | - | - | - |
* Rain latest hour (hover to see other rain measurements)
** Current wind speed in m/s (hover to see current wind gust speed)